Flag for Germany Weather past 2 weeks in Essen, North Rhine-Westphalia, Germany

63 °F

Partly sunny.

Feels Like: 63 °F
Forecast: 51 / 64 °F
Wind: 6 mph from Southwest

Location: Duesseldorf

Current Time: Oct 4, 2015 at 2:00:09 PM

Latest Report: Oct 4, 2015 at 1:20 PM

Visibility: N/A

Pressure: 30.01 "Hg

Humidity: 73%

Dew point: 54 °F

Location of EssenLocation

Historic Weather in Essen — Graph


Essen temperature yesterday

Maximum temperature yesterday: 68 °F (at 3:20 PM)
Minimum temperature yesterday: 43 °F (at 2:50 AM)
Average temperature yesterday: 54 °F

Past Weeks' High & Low Weather Summary

High68 °F (Oct 3, 3:20 PM)100% (Sep 23, 3:50 AM)30.63 "Hg (Sep 23, 3:50 AM)
Low37 °F (Oct 2, 5:20 AM)43% (Sep 30, 3:20 PM)29.50 "Hg (Sep 22, 3:50 PM)
Average55 °F79%30.20 "Hg
* Reported Sep 19 12:20 PM — Oct 4 12:50 PM, Essen, Weather by CustomWeather, © 2015

Note: Actual official high and low records may vary slightly from our data, if they occured in-between our weather recording intervals... More about our weather records


Essen weather history for previous 24 hours

Time TempWeatherWind HumidityBarometerVisibility
12:50 PM
Sun, Oct 4
63 °FScattered clouds.7 mph73%30.01 "HgN/A
12:20 PM63 °FScattered clouds.8 mph73%30.04 "HgN/A
11:50 AM61 °FScattered clouds.6 mph77%30.04 "HgN/A
11:20 AM61 °FSunny.6 mph72%30.04 "Hg10 mi
10:50 AM59 °FSunny.6 mph77%30.04 "Hg10 mi
10:20 AM57 °FSunny.6 mph88%30.01 "Hg10 mi
9:50 AM55 °FSunny.7 mph88%30.01 "Hg10 mi
9:20 AM54 °FSunny.7 mph94%30.01 "Hg10 mi
8:50 AM52 °FSunny.6 mph94%30.01 "Hg10 mi
8:20 AM52 °FClear.3 mph94%30.01 "Hg10 mi
7:50 AM52 °FClear.5 mph94%30.01 "Hg10 mi
7:20 AM52 °FClear.3 mph88%30.01 "Hg10 mi
6:20 AM52 °FClear.6 mph94%29.98 "Hg10 mi
5:50 AM52 °FClear.8 mph94%29.98 "Hg10 mi
5:20 AM50 °FClear.8 mph94%29.98 "Hg10 mi
4:50 AM52 °FClear.8 mph88%29.98 "Hg10 mi
4:20 AM52 °FClear.6 mph88%29.98 "Hg10 mi
3:50 AM52 °FClear.6 mph88%29.98 "Hg10 mi
3:20 AM52 °FClear.8 mph94%29.98 "Hg10 mi
2:50 AM52 °FClear.7 mph94%29.98 "Hg10 mi
2:20 AM52 °FFog.9 mph94%29.95 "HgN/A
1:50 AM48 °FFog.3 mph94%29.95 "HgN/A
1:20 AM50 °FFog.2 mph94%29.95 "HgN/A
12:50 AM50 °FFog.2 mph94%29.95 "HgN/A
12:20 AM52 °FClear.1 mph88%29.95 "Hg10 mi
11:50 PM
Sat, Oct 3
52 °FClear.1 mph88%29.95 "Hg10 mi
11:20 PM52 °FClear.1 mph88%29.95 "Hg10 mi
10:50 PM54 °FClear.2 mph88%29.95 "Hg10 mi
10:20 PM54 °FClear.3 mph88%29.95 "Hg10 mi
9:50 PM55 °FClear.3 mph88%29.95 "Hg10 mi
9:20 PM54 °FClear.3 mph88%29.95 "Hg10 mi
8:50 PM55 °FClear.1 mph82%29.95 "Hg10 mi
8:20 PM57 °FClear.2 mph77%29.92 "Hg10 mi
7:50 PM59 °FSunny.2 mph77%29.92 "Hg10 mi
7:20 PM61 °FSunny.2 mph77%29.92 "Hg10 mi
6:50 PM63 °FSunny.1 mph73%29.92 "Hg10 mi
6:20 PM64 °FSunny.2 mph64%29.95 "Hg10 mi
5:50 PM64 °FSunny.2 mph56%29.95 "Hg10 mi
5:20 PM64 °FSunny.3 mph60%29.92 "Hg10 mi
4:50 PM66 °FSunny.5 mph52%29.92 "Hg10 mi
4:20 PM68 °FSunny.5 mph53%29.92 "Hg10 mi
3:50 PM68 °FPassing clouds.5 mph53%29.92 "HgN/A
3:20 PM68 °FSunny.3 mph53%29.92 "Hg10 mi
2:50 PM66 °FSunny.3 mph52%29.95 "Hg10 mi
2:20 PM64 °FSunny.6 mph56%29.95 "Hg10 mi
Weather by CustomWeather, © 2015

See weather overviewHow to use our weather pages